Location: Gajan
(43.0218°N, 1.1244°E)
Time: 02:07:46
(UTC+00:00)

Cosmos 676 Rocket - Pass Details

Date: 22 April 2021
Orbit: 755 x 783 km, 74.0° (Epoch: 15 May)

Event Time Altitude Azimuth Distance (km) Brightness Sun altitude
Exits shadow 21:17:20 15° 214° (SW) 1,971 6.0 -23.9°
Maximum altitude 21:21:37 61° 293° (WNW) 861 4.4 -24.5°
Drops below altitude 10° 21:26:45 10° 14° (NNE) 2,290 6.9 -25.1°
Sets 21:29:10 0° 18° (NNE) 3,218 7.7 -25.4°
